| time (UTC) | temp F | wind direction | speed MPH | gust MPH | rain 1hr in | rain 24hr in | rain mn in | humidity % | barometer mb |
| 20260506073102 | 43 | 271 | 5.0 | 6.0 | 0.00 | 0.18 | 0.00 | 69 | 1017.6 |
| 20260506071551 | 43 | 271 | 4.0 | 7.0 | 0.00 | 0.18 | 0.00 | 69 | 1017.8 |
| 20260506061600 | 44 | 287 | 4.0 | 12.0 | 0.00 | 0.18 | 0.18 | 67 | 1017.6 |
| 20260506044605 | 46 | 271 | 8.0 | 16.0 | 0.00 | 0.18 | 0.18 | 64 | 1017.1 |
| 20260506043052 | 46 | 302 | 10.0 | 19.0 | 0.00 | 0.18 | 0.18 | 61 | 1016.7 |
| 20260506041606 | 47 | 244 | 14.0 | 22.0 | 0.00 | 0.18 | 0.18 | 57 | 1016.5 |
| 20260506034601 | 47 | 274 | 13.0 | 24.0 | 0.00 | 0.18 | 0.18 | 52 | 1016.4 |
| 20260506033057 | 48 | 244 | 13.0 | 22.0 | 0.00 | 0.18 | 0.18 | 49 | 1016.1 |
| 20260506031556 | 48 | 288 | 13.0 | 21.0 | 0.00 | 0.18 | 0.18 | 49 | 1016.1 |
| 20260506030052 | 49 | 240 | 12.0 | 20.0 | 0.00 | 0.18 | 0.18 | 47 | 1016.1 |
| 20260506024552 | 49 | 224 | 14.0 | 21.0 | 0.00 | 0.18 | 0.18 | 48 | 1016.3 |
| 20260506023056 | 50 | 267 | 12.0 | 21.0 | 0.00 | 0.18 | 0.18 | 47 | 1016.3 |
| 20260506021552 | 50 | 224 | 14.0 | 20.0 | 0.00 | 0.18 | 0.18 | 47 | 1015.8 |
| 20260506020118 | 51 | 253 | 12.0 | 20.0 | 0.00 | 0.18 | 0.18 | 44 | 1015.5 |
| 20260506014557 | 52 | 251 | 10.0 | 21.0 | 0.00 | 0.18 | 0.18 | 44 | 1015.5 |
| 20260506013056 | 53 | 228 | 8.0 | 18.0 | 0.00 | 0.18 | 0.18 | 43 | 1015.4 |
| 20260506011553 | 53 | 263 | 12.0 | 21.0 | 0.00 | 0.18 | 0.18 | 43 | 1015.5 |
| 20260506010057 | 55 | 230 | 11.0 | 21.0 | 0.00 | 0.18 | 0.18 | 44 | 1015.3 |
| 20260506004557 | 56 | 257 | 7.0 | 26.0 | 0.00 | 0.18 | 0.18 | 45 | 1015.3 |
| 20260506003054 | 55 | 284 | 11.0 | 27.0 | 0.00 | 0.18 | 0.18 | 45 | 1015.2 |
| 20260506001606 | 55 | 233 | 16.0 | 29.0 | 0.00 | 0.18 | 0.18 | 47 | 1015.3 |
| 20260506000123 | 55 | 203 | 16.0 | 35.0 | 0.00 | 0.18 | 0.18 | 45 | 1014.9 |
| 20260505234607 | 55 | 214 | 16.0 | 34.0 | 0.00 | 0.18 | 0.18 | 45 | 1015.0 |
| 20260505233054 | 55 | 233 | 15.0 | 33.0 | 0.00 | 0.18 | 0.18 | 44 | 1015.1 |
| 20260505231556 | 55 | 190 | 10.0 | 25.0 | 0.00 | 0.18 | 0.18 | 44 | 1015.1 |
| 20260505230054 | 55 | 160 | 22.0 | 37.0 | 0.00 | 0.18 | 0.18 | 42 | 1014.8 |
| 20260505224553 | 56 | 223 | 15.0 | 39.0 | 0.00 | 0.18 | 0.18 | 41 | 1014.9 |
| 20260505223051 | 55 | 231 | 20.0 | 38.0 | 0.00 | 0.18 | 0.18 | 42 | 1015.0 |
| 20260505221556 | 55 | 223 | 25.0 | 33.0 | 0.00 | 0.18 | 0.18 | 45 | 1015.6 |
| 20260505220104 | 57 | 235 | 8.0 | 30.0 | 0.00 | 0.18 | 0.18 | 46 | 1015.4 |
| 20260505214601 | 56 | 207 | 8.0 | 31.0 | 0.00 | 0.18 | 0.18 | 49 | 1015.5 |
| 20260505213050 | 56 | 221 | 9.0 | 25.0 | 0.00 | 0.18 | 0.18 | 49 | 1015.7 |
| 20260505211623 | 58 | 181 | 6.0 | 27.0 | 0.00 | 0.18 | 0.18 | 53 | 1015.9 |
| 20260505210051 | 56 | 187 | 11.0 | 28.0 | 0.00 | 0.18 | 0.18 | 50 | 1016.1 |
| 20260505204605 | 54 | 157 | 18.0 | 33.0 | 0.00 | 0.18 | 0.18 | 52 | 1016.1 |
| 20260505203048 | 55 | 201 | 10.0 | 29.0 | 0.00 | 0.18 | 0.18 | 57 | 1016.2 |
| 20260505201550 | 54 | 180 | 15.0 | 36.0 | 0.00 | 0.18 | 0.18 | 61 | 1016.2 |
| 20260505200049 | 55 | 162 | 15.0 | 29.0 | 0.00 | 0.18 | 0.18 | 57 | 1016.3 |
| 20260505194548 | 55 | 185 | 7.0 | 28.0 | 0.00 | 0.18 | 0.18 | 63 | 1016.1 |
| 20260505193052 | 54 | 223 | 24.0 | 39.0 | 0.00 | 0.18 | 0.18 | 63 | 1016.2 |
| 20260505191552 | 53 | 214 | 10.0 | 24.0 | 0.00 | 0.18 | 0.18 | 68 | 1016.2 |
| 20260505190055 | 53 | 144 | 8.0 | 19.0 | 0.00 | 0.18 | 0.18 | 71 | 1016.5 |
| 20260505184548 | 53 | 159 | 8.0 | 18.0 | 0.00 | 0.18 | 0.18 | 72 | 1016.7 |
| 20260505183051 | 55 | 112 | 6.0 | 18.0 | 0.00 | 0.18 | 0.18 | 69 | 1016.7 |
| 20260505181627 | 54 | 184 | 7.0 | 18.0 | 0.00 | 0.18 | 0.18 | 71 | 1016.8 |
| 20260505180106 | 53 | 175 | 9.0 | 18.0 | 0.00 | 0.18 | 0.18 | 73 | 1016.9 |
| 20260505174552 | 50 | 175 | 12.0 | 27.0 | 0.00 | 0.18 | 0.18 | 76 | 1016.7 |
| 20260505173050 | 51 | 150 | 9.0 | 21.0 | 0.00 | 0.18 | 0.18 | 79 | 1016.7 |
| 20260505171559 | 50 | 146 | 11.0 | 20.0 | 0.00 | 0.18 | 0.18 | 79 | 1016.8 |
| 20260505170055 | 49 | 169 | 10.0 | 23.0 | 0.00 | 0.18 | 0.18 | 80 | 1016.6 |
| 20260505164553 | 49 | 186 | 12.0 | 29.0 | 0.00 | 0.18 | 0.18 | 80 | 1016.5 |
| 20260505163053 | 50 | 123 | 12.0 | 27.0 | 0.00 | 0.18 | 0.18 | 80 | 1016.3 |
| 20260505161553 | 49 | 189 | 5.0 | 29.0 | 0.00 | 0.18 | 0.18 | 81 | 1016.5 |
| 20260505153057 | 48 | 187 | 18.0 | 37.0 | 0.00 | 0.18 | 0.18 | 78 | 1016.1 |
| 20260505151551 | 48 | 169 | 11.0 | 38.0 | 0.00 | 0.18 | 0.18 | 78 | 1015.8 |
| 20260505124551 | 47 | 158 | 10.0 | 18.0 | 0.02 | 0.18 | 0.18 | 89 | 1014.8 |
| 20260505123057 | 47 | 180 | 20.0 | 32.0 | 0.02 | 0.18 | 0.18 | 88 | 1014.6 |
| 20260505121553 | 47 | 169 | 14.0 | 26.0 | 0.02 | 0.18 | 0.18 | 89 | 1014.9 |
| 20260505120110 | 47 | 176 | 10.0 | 23.0 | 0.01 | 0.17 | 0.17 | 90 | 1015.1 |
| 20260505114556 | 46 | 175 | 9.0 | 13.0 | 0.00 | 0.16 | 0.16 | 90 | 1014.8 |
| 20260505113050 | 46 | 146 | 6.0 | 12.0 | 0.00 | 0.16 | 0.16 | 90 | 1014.6 |
| 20260505111553 | 46 | 167 | 8.0 | 15.0 | 0.00 | 0.16 | 0.16 | 91 | 1015.0 |
| 20260505110111 | 44 | 141 | 10.0 | 18.0 | 0.01 | 0.16 | 0.16 | 93 | 1015.3 |
| 20260505101549 | 43 | 155 | 7.0 | 11.0 | 0.05 | 0.16 | 0.16 | 91 | 1015.7 |
| 20260505100047 | 44 | 162 | 8.0 | 14.0 | 0.06 | 0.15 | 0.15 | 90 | 1016.1 |
| 20260505094550 | 44 | 139 | 7.0 | 12.0 | 0.07 | 0.14 | 0.14 | 91 | 1016.8 |
| 20260505093049 | 45 | 165 | 5.0 | 15.0 | 0.08 | 0.12 | 0.12 | 89 | 1016.6 |
| 20260505091555 | 45 | 178 | 9.0 | 17.0 | 0.10 | 0.11 | 0.11 | 88 | 1017.1 |
| 20260505090054 | 45 | 221 | 16.0 | 25.0 | 0.09 | 0.09 | 0.09 | 85 | 1017.8 |
| 20260505084559 | 45 | 224 | 16.0 | 23.0 | 0.07 | 0.07 | 0.07 | 83 | 1017.8 |
| 20260505083105 | 46 | 297 | 10.0 | 17.0 | 0.04 | 0.04 | 0.04 | 91 | 1018.0 |
| 20260505081552 | 47 | 283 | 11.0 | 18.0 | 0.01 | 0.01 | 0.01 | 88 | 1018.6 |